Location: Équennes
(49.7375°N, 1.9622°E)
Time: 23:28:13
(UTC+00:00)

Cosmos 1656 - Pass Details

Date: 05 October 2023
Orbit: 797 x 849 km, 71.1° (Epoch: 03 December)

Event Time Altitude Azimuth Distance (km) Brightness Sun altitude
Rises 20:16:43 0° 335° (NNW) 3,317 7.6 -28.1°
Reaches altitude 10° 20:19:47 10° 352° (N) 2,387 6.5 -28.5°
Enters shadow 20:22:55 20° 26° (NNE) 1,813 5.4 -28.9°
